EW5627 Weather Reports


Display with metric or nautical units.
time (UTC)temp
F
wind
direction
speed
MPH
gust
MPH
rain 1hr
in
rain 24hr
in
rain mn
in
humidity
%
barometer
mb
20260510213025 65 176 0.0 0.0 0.00 0.23 0.00 82 1012.3
20260510211525 65 176 0.0 0.0 0.00 0.23 0.00 82 1012.0
20260510210027 65 176 0.0 0.0 0.00 0.23 0.00 80 1011.9
20260510204536 66 176 0.0 0.0 0.00 0.27 0.00 77 1011.8
20260510203024 66 176 0.0 1.0 0.00 0.27 0.00 77 1011.8
20260510201518 67 171 0.0 0.0 0.00 0.27 0.00 78 1011.8
20260510200018 68 226 0.0 0.0 0.00 0.27 0.00 78 1011.9
20260510194521 68 205 0.0 0.0 0.00 0.33 0.00 75 1011.8
20260510193015 70 230 0.0 0.0 0.00 0.33 0.00 73 1011.8
20260510191524 70 216 0.0 0.0 0.00 0.33 0.00 71 1011.8
20260510190027 69 199 0.0 1.0 0.00 0.33 0.00 70 1011.9
20260510184509 69 201 0.0 0.0 0.00 0.48 0.00 73 1012.2
20260510183005 69 194 0.0 0.0 0.00 0.48 0.00 74 1012.2
20260510181508 68 182 0.0 0.0 0.00 0.48 0.00 74 1012.1
20260510174559 69 185 0.0 1.0 0.00 0.48 0.00 74 1012.2
20260510173111 68 170 0.0 0.0 0.00 0.48 0.00 78 1012.3
20260510171550 66 254 0.0 0.0 0.00 0.48 0.00 84 1012.2
20260510170046 65 244 0.0 1.0 0.00 0.48 0.00 83 1012.5
20260510164604 63 216 0.0 0.0 0.00 0.48 0.00 86 1012.6
20260510163043 61 186 0.0 0.0 0.00 0.48 0.00 89 1012.7
20260510161533 59 200 0.0 0.0 0.00 0.48 0.00 92 1012.7
20260510160030 58 223 0.0 0.0 0.00 0.48 0.00 93 1012.8
20260510154526 57 195 0.0 0.0 0.00 0.48 0.00 93 1012.9
20260510153036 56 209 0.0 0.0 0.00 0.48 0.00 94 1012.8
20260510151522 56 231 0.0 0.0 0.00 0.48 0.00 94 1012.9
20260510150021 55 124 0.0 0.0 0.00 0.48 0.00 94 1012.9
20260510144538 56 183 0.0 1.0 0.00 0.48 0.00 95 1013.0
20260510143019 55 204 0.0 0.0 0.00 0.48 0.00 95 1012.9
20260510141517 55 205 0.0 0.0 0.00 0.48 0.00 95 1012.6
20260510140014 54 204 0.0 0.0 0.00 0.48 0.00 95 1012.5
20260510134512 54 203 0.0 0.0 0.00 0.48 0.00 95 1012.6
20260510133015 54 223 0.0 0.0 0.00 0.48 0.00 95 1012.6
20260510131508 53 221 0.0 0.0 0.00 0.48 0.00 95 1012.2
20260510130006 53 331 0.0 0.0 0.00 0.48 0.00 95 1012.3
20260510124503 53 336 0.0 0.0 0.00 0.48 0.00 95 1012.1
20260510123101 52 335 0.0 0.0 0.00 0.48 0.00 95 1012.0
20260510121600 52 334 0.0 0.0 0.00 0.48 0.00 95 1011.8
20260510120058 52 335 0.0 0.0 0.00 0.48 0.00 95 1011.8
20260510114604 51 334 0.0 0.0 0.00 0.48 0.00 95 1011.8
20260510113051 51 335 0.0 0.0 0.00 0.48 0.00 95 1011.3
20260510111551 51 36 0.0 0.0 0.00 0.48 0.00 95 1011.1
20260510110048 51 355 0.0 0.0 0.00 0.48 0.00 95 1011.0
20260510104604 50 45 0.0 0.0 0.00 0.48 0.00 95 1011.0
20260510103049 50 42 0.0 0.0 0.00 0.48 0.00 95 1011.1
20260510101544 50 165 0.0 0.0 0.00 0.48 0.00 95 1010.9
20260510100052 50 167 0.0 0.0 0.00 0.48 0.00 95 1011.1
20260510094546 50 192 0.0 0.0 0.00 0.48 0.00 94 1011.0
20260510093039 51 93 0.0 0.0 0.00 0.48 0.00 94 1011.2
20260510091539 51 209 0.0 0.0 0.00 0.48 0.00 94 1011.4
20260510090041 50 209 0.0 0.0 0.00 0.48 0.00 94 1011.3
20260510084549 50 209 0.0 0.0 0.00 0.48 0.00 95 1011.3
20260510083040 50 236 0.0 0.0 0.00 0.48 0.00 95 1011.4
20260510081536 50 236 0.0 0.0 0.00 0.48 0.00 94 1011.5
20260510080034 50 236 0.0 0.0 0.00 0.48 0.00 94 1011.2
20260510074532 50 234 0.0 0.0 0.00 0.48 0.00 94 1010.4
20260510073035 50 234 0.0 0.0 0.00 0.48 0.00 94 1010.5
20260510071542 50 234 0.0 0.0 0.00 0.48 0.00 94 1010.7
20260510070031 50 234 0.0 0.0 0.00 0.48 0.00 94 1010.7
20260510064529 50 234 0.0 0.0 0.00 0.49 0.00 94 1010.7
20260510063029 51 234 0.0 0.0 0.00 0.49 0.00 94 1010.8
20260510061527 51 234 0.0 0.0 0.00 0.49 0.00 94 1010.7
20260510060033 51 49 0.0 0.0 0.00 0.49 0.00 94 1010.5
20260510054527 51 49 0.0 0.0 0.00 0.49 0.00 94 1010.4
20260510053025 51 47 0.0 0.0 0.00 0.49 0.00 94 1010.5
20260510051536 51 47 0.0 0.0 0.00 0.49 0.00 94 1010.5
20260510050024 51 47 0.0 0.0 0.00 0.49 0.00 94 1010.7
20260510044526 51 47 0.0 0.0 0.00 0.49 0.00 94 1010.5
20260510043024 51 47 0.0 0.0 0.00 0.49 0.00 94 1010.6
20260510041517 51 47 0.0 0.0 0.00 0.49 0.00 94 1010.6
20260510040012 51 47 0.0 0.0 0.00 0.49 0.00 94 1010.4
20260510034512 52 47 0.0 0.0 0.00 0.49 0.49 93 1010.3
20260510033008 52 46 0.0 0.0 0.00 0.49 0.49 94 1010.1
20260510031507 52 46 0.0 0.0 0.00 0.49 0.49 94 1010.3
20260510030007 52 46 0.0 0.0 0.00 0.49 0.49 93 1010.3
20260510024507 52 46 0.0 0.0 0.00 0.49 0.49 93 1010.6
20260510023007 52 46 0.0 0.0 0.00 0.49 0.49 93 1010.4
20260510021505 52 46 0.0 0.0 0.00 0.49 0.49 93 1010.4
20260510020005 53 46 0.0 0.0 0.00 0.49 0.49 93 1010.5
20260510014507 53 44 0.0 0.0 0.00 0.49 0.49 93 1010.3
20260510013004 53 44 0.0 0.0 0.00 0.49 0.49 93 1010.2
20260510011502 53 44 0.0 0.0 0.00 0.49 0.49 93 1010.0
20260510010002 53 44 0.0 0.0 0.00 0.49 0.49 93 1009.8
20260510004504 53 44 0.0 0.0 0.00 0.49 0.49 93 1009.7
20260510003002 53 42 0.0 0.0 0.00 0.49 0.49 92 1009.8
20260510001501 53 63 0.0 1.0 0.00 0.49 0.49 92 1009.7
20260510000130 53 74 0.0 0.0 0.00 0.49 0.49 92 1009.5
20260510000001 54 74 0.0 0.0 0.00 0.49 0.49 92 1009.5
20260509234607 54 74 0.0 0.0 0.00 0.49 0.49 92 1009.5
20260509233059 54 54 0.0 0.0 0.00 0.49 0.49 92 1009.5
20260509231557 54 25 0.0 0.0 0.04 0.49 0.49 92 1009.7
20260509230057 54 25 0.0 1.0 0.10 0.49 0.49 92 1009.8
20260509224555 54 25 0.0 0.0 0.17 0.49 0.49 92 1009.7
20260509223053 54 148 0.0 0.0 0.20 0.49 0.49 92 1010.0
20260509221607 54 146 0.0 1.0 0.17 0.45 0.45 92 1009.9
20260509220103 54 188 0.0 0.0 0.12 0.39 0.39 91 1010.2
20260509214553 54 96 0.0 0.0 0.07 0.32 0.32 91 1010.3